Find Starlink 35598

NORAD ID: 66509 Int'l Des: 2025-263 Owner: SPXS Country: US Constellation: starlink operational
LEOCIRCULAR

实时位置

正在加载3D地球...

关于 Starlink 35598

正在加载描述...

即将过境

Passes for default location (London). Set your location on the main map for personalized predictions.

高度历史

Loading altitude history...

两行轨道根数

1 66509U 25263AA 26105.17080456 .00011851 00000-0 43937-3 0 9994
2 66509 43.0010 145.0610 0001365 255.5445 104.5256 15.27589834 24470
Epoch: Apr 15, 2026 • Age: 6 hours

当前状态

高度 485.1 km
速度 7.62 km/s
星下点 -12.51°S, 131.88°E
发射日期 Nov 15, 2025
运行时间 0.4 years
类型 internet

技术详情

分类 Payload
质量 575.00 kg
干质量 530.00 kg
总质量 575.00 kg
长度 0.30 m
直径 4.10 m
跨度 29.00 m
形状 Box + pan
制造商 SPXS
平台类型 Starlink V2MO
阶段状态 In Orbit
所有者/国家 SPXS/US

Most Searched